Location: Cortada de Papelón
(10.0378°N, 66.9528°W)
Time: 15:37:35
(UTC+00:00)

Lacrosse 4 Rocket - Pass Details

Date: 13 June 2024
Orbit: 525 x 593 km, 68.0° (Epoch: 21 July)

Event Time Altitude Azimuth Distance (km) Brightness Sun altitude
Rises 23:08:36 0° 350° (N) 2,776 5.5 -5.2°
Reaches altitude 10° 23:10:51 10° 355° (N) 1,889 4.5 -5.7°
Maximum altitude 23:14:58 48° 71° (ENE) 767 1.8 -6.6°
Drops below altitude 10° 23:19:08 10° 145° (SE) 1,917 3.6 -7.5°
Enters shadow 23:20:13 - 149° (SSE) 2,338 4.0 -7.8°
